| time (UTC) | temp C | wind direction | speed KPH | gust KPH | rain 1hr cm | rain 24hr cm | rain mn cm | humidity % | barometer mb |
| 20260504081552 | -17 | 0.0 | 0.0 | 0.00 | 0.00 | 0.00 | 1013.5 | ||
| 20260504050005 | 2 | 217 | 0.0 | 0.0 | 0.00 | 0.00 | 0.00 | 85 | 1013.0 |
| 20260504044511 | 2 | 217 | 0.0 | 0.0 | 0.00 | 0.00 | 0.00 | 85 | 1013.0 |
| 20260504043104 | 2 | 217 | 0.0 | 0.0 | 0.00 | 0.00 | 0.00 | 84 | 1012.9 |
| 20260504041557 | 3 | 217 | 0.0 | 0.0 | 0.00 | 0.00 | 0.00 | 82 | 1012.7 |
| 20260504040110 | 3 | 217 | 0.0 | 0.0 | 0.00 | 0.00 | 0.00 | 81 | 1012.6 |
| 20260504034558 | 3 | 217 | 0.0 | 0.0 | 0.00 | 0.00 | 0.00 | 80 | 1012.6 |
| 20260504033052 | 4 | 217 | 0.0 | 0.0 | 0.00 | 0.00 | 0.00 | 79 | 1012.6 |
| 20260504031546 | 4 | 217 | 0.0 | 0.0 | 0.00 | 0.00 | 0.00 | 77 | 1012.6 |
| 20260504030043 | 5 | 217 | 0.0 | 0.0 | 0.00 | 0.00 | 0.00 | 76 | 1012.5 |
| 20260504024540 | 5 | 217 | 0.0 | 0.0 | 0.00 | 0.00 | 0.00 | 76 | 1012.7 |
| 20260504023038 | 6 | 217 | 0.0 | 0.0 | 0.00 | 0.00 | 0.00 | 72 | 1012.6 |
| 20260504021537 | 6 | 217 | 0.0 | 0.0 | 0.00 | 0.00 | 0.00 | 67 | 1012.6 |
| 20260504020035 | 7 | 217 | 0.0 | 0.0 | 0.00 | 0.00 | 0.00 | 68 | 1012.5 |
| 20260504014539 | 7 | 217 | 0.0 | 0.0 | 0.00 | 0.00 | 0.00 | 66 | 1012.3 |
| 20260504013038 | 7 | 217 | 0.0 | 0.0 | 0.00 | 0.00 | 0.00 | 61 | 1012.3 |
| 20260504011534 | 8 | 217 | 0.0 | 0.0 | 0.00 | 0.00 | 0.00 | 58 | 1012.1 |
| 20260504010035 | 9 | 217 | 0.0 | 0.0 | 0.00 | 0.00 | 0.00 | 55 | 1011.9 |
| 20260504004531 | 10 | 217 | 0.0 | 0.0 | 0.00 | 0.00 | 0.00 | 51 | 1011.7 |
| 20260504003034 | 11 | 217 | 0.0 | 0.0 | 0.00 | 0.00 | 0.00 | 46 | 1011.5 |
| 20260504001537 | 12 | 217 | 0.0 | 3.2 | 0.00 | 0.00 | 0.00 | 42 | 1011.3 |
| 20260504000031 | 12 | 224 | 0.0 | 4.8 | 0.00 | 0.00 | 0.00 | 40 | 1011.1 |
| 20260503234529 | 12 | 83 | 0.0 | 1.6 | 0.00 | 0.00 | 0.00 | 41 | 1010.9 |
| 20260503233028 | 13 | 77 | 0.0 | 4.8 | 0.00 | 0.00 | 0.00 | 39 | 1010.7 |
| 20260503231528 | 13 | 194 | 0.0 | 3.2 | 0.00 | 0.00 | 0.00 | 36 | 1010.6 |
| 20260503230027 | 13 | 239 | 0.0 | 4.8 | 0.00 | 0.00 | 0.00 | 34 | 1010.4 |
| 20260503224527 | 13 | 222 | 0.0 | 4.8 | 0.00 | 0.00 | 0.00 | 33 | 1010.3 |
| 20260503223026 | 14 | 74 | 1.6 | 8.0 | 0.00 | 0.00 | 0.00 | 32 | 1010.2 |
| 20260503221525 | 14 | 294 | 1.6 | 8.0 | 0.00 | 0.00 | 0.00 | 32 | 1010.2 |
| 20260503220027 | 14 | 222 | 1.6 | 11.3 | 0.00 | 0.00 | 0.00 | 30 | 1010.3 |
| 20260503214527 | 15 | 232 | 4.8 | 11.3 | 0.00 | 0.00 | 0.00 | 29 | 1010.1 |
| 20260503213022 | 15 | 238 | 1.6 | 12.9 | 0.00 | 0.00 | 0.00 | 29 | 1010.0 |
| 20260503211521 | 15 | 67 | 4.8 | 12.9 | 0.00 | 0.00 | 0.00 | 29 | 1010.1 |
| 20260503210021 | 15 | 121 | 3.2 | 12.9 | 0.00 | 0.00 | 0.00 | 29 | 1010.2 |
| 20260503204522 | 15 | 111 | 1.6 | 11.3 | 0.00 | 0.00 | 0.00 | 29 | 1010.2 |
| 20260503203021 | 15 | 218 | 1.6 | 11.3 | 0.00 | 0.00 | 0.00 | 31 | 1010.3 |
| 20260503201516 | 14 | 224 | 3.2 | 9.7 | 0.00 | 0.00 | 0.00 | 31 | 1010.4 |
| 20260503200015 | 14 | 29 | 3.2 | 14.5 | 0.00 | 0.00 | 0.00 | 30 | 1010.2 |
| 20260503194511 | 13 | 215 | 6.4 | 14.5 | 0.00 | 0.00 | 0.00 | 31 | 1010.4 |
| 20260503193012 | 13 | 253 | 6.4 | 20.9 | 0.00 | 0.00 | 0.00 | 32 | 1010.6 |
| 20260503191526 | 13 | 60 | 3.2 | 9.7 | 0.00 | 0.00 | 0.00 | 33 | 1010.8 |
| 20260503190008 | 13 | 217 | 3.2 | 22.5 | 0.00 | 0.00 | 0.00 | 35 | 1010.9 |
| 20260503184506 | 13 | 186 | 1.6 | 9.7 | 0.00 | 0.00 | 0.00 | 34 | 1011.0 |
| 20260503183005 | 13 | 229 | 1.6 | 19.3 | 0.00 | 0.00 | 0.00 | 34 | 1011.0 |
| 20260503181506 | 13 | 250 | 4.8 | 14.5 | 0.00 | 0.00 | 0.00 | 35 | 1011.1 |
| 20260503180120 | 12 | 266 | 3.2 | 12.9 | 0.00 | 0.00 | 0.00 | 38 | 1011.2 |
| 20260503174556 | 11 | 95 | 6.4 | 16.1 | 0.00 | 0.00 | 0.00 | 39 | 1011.3 |
| 20260503173105 | 11 | 93 | 8.0 | 16.1 | 0.00 | 0.00 | 0.00 | 39 | 1011.7 |
| 20260503171553 | 11 | 284 | 1.6 | 14.5 | 0.00 | 0.00 | 0.00 | 42 | 1011.8 |
| 20260503160104 | 11 | 201 | 3.2 | 11.3 | 0.00 | 0.00 | 0.00 | 41 | 1012.0 |